Home > Weather > Ratingen > Past weeks

Flag for Germany Past Weather in Ratingen, North Rhine-Westphalia, Germany — Yesterday and Last 2 Weeks

Now
61 °F

Broken clouds.


Feels Like: 61 °F
Forecast: 61 / 73 °F
Wind: 12 mph from Southwest

Location: Duesseldorf

Current Time: Jun 30, 2016 at 7:13:55 AM

Latest Report: Jun 30, 2016 at 6:20 AM


Visibility: N/A

Pressure: 29.86 "Hg

Humidity: 83%

Dew Point: 55 °F

Location of RatingenLocation

Past Weather in Ratingen — Graph

°F

Ratingen Temperature Yesterday

Maximum temperature yesterday: 70 °F (at 2:50 PM)
Minimum temperature yesterday: 57 °F (at 7:20 AM)
Average temperature yesterday: 64 °F

High & Low Weather Summary for the Past Weeks

 TemperatureHumidityPressure
High91 °F (Jun 23, 3:20 PM)100% (Jun 15, 11:20 PM)30.27 "Hg (Jun 15, 11:20 PM)
Low50 °F (Jun 16, 2:20 AM)44% (Jun 23, 5:20 PM)29.47 "Hg (Jun 15, 6:20 AM)
Average63 °F83%29.97 "Hg
* Reported Jun 15 6:20 AM — Jun 30 6:20 AM, Ratingen, Weather by CustomWeather, © 2016

Note: Actual official high and low records may vary slightly from our data, if they occured in-between our weather recording intervals... More about our weather records

Advertising

Ratingen Weather History for the Previous 24 Hours

Scroll right to see more
 ConditionsComfort  
Time TempWeatherWind HumidityBarometerVisibility
6:20 AM
Thu, Jun 30
61 °FBroken clouds.12 mph83%29.86 "HgN/A
5:20 AM61 °FLight rain. Passing clouds.9 mph83%29.86 "HgN/A
4:50 AM61 °FLight rain. Passing clouds.12 mph88%29.86 "HgN/A
4:20 AM61 °FLight rain. Passing clouds.12 mph83%29.86 "HgN/A
3:50 AM61 °FLight rain. Passing clouds.10 mph88%29.86 "HgN/A
3:20 AM63 °FPassing clouds.10 mph77%29.86 "HgN/A
2:50 AM63 °FPassing clouds.10 mph77%29.86 "HgN/A
2:20 AM63 °FPassing clouds.9 mph77%29.86 "HgN/A
1:50 AM63 °FLight rain. Passing clouds.9 mph77%29.86 "HgN/A
1:20 AM63 °FLight rain. Clear.9 mph77%29.86 "HgN/A
12:50 AM63 °FLight rain. Clear.9 mph77%29.86 "HgN/A
12:20 AM63 °FLight rain. Clear.3 mph77%29.86 "HgN/A
11:50 PM
Wed, Jun 29
63 °FLight rain. Clear.5 mph77%29.86 "HgN/A
11:20 PM64 °FClear.7 mph64%29.86 "Hg10 mi
10:50 PM66 °FSunny.6 mph60%29.86 "Hg10 mi
10:20 PM66 °FSunny.7 mph60%29.89 "Hg10 mi
9:50 PM64 °FSunny.5 mph68%29.89 "Hg10 mi
9:20 PM64 °FSunny.6 mph68%29.89 "Hg10 mi
8:50 PM66 °FSunny.6 mph64%29.89 "Hg10 mi
8:20 PM66 °FSunny.8 mph60%29.89 "Hg10 mi
7:50 PM68 °FSunny.8 mph56%29.89 "Hg10 mi
7:20 PM68 °FSunny.9 mph53%29.89 "Hg10 mi
6:50 PM68 °FSunny.9 mph53%29.89 "Hg10 mi
6:20 PM70 °FSunny.9 mph53%29.89 "Hg10 mi
5:50 PM68 °FSunny.16 mph53%29.89 "Hg10 mi
5:20 PM70 °FSunny.15 mph46%29.89 "Hg10 mi
4:50 PM68 °FPartly sunny.12 mph53%29.92 "HgN/A
4:20 PM70 °FPartly sunny.15 mph50%29.92 "HgN/A
3:50 PM68 °FPartly sunny.17 mph53%29.92 "HgN/A
3:20 PM68 °FPartly sunny.17 mph56%29.92 "HgN/A
2:50 PM70 °FPartly sunny.16 mph53%29.92 "HgN/A
2:20 PM68 °FPartly sunny.16 mph56%29.92 "HgN/A
1:50 PM66 °FPartly sunny.16 mph60%29.92 "HgN/A
1:20 PM66 °FPartly sunny.16 mph60%29.92 "HgN/A
12:50 PM66 °FPartly sunny.17 mph64%29.92 "HgN/A
12:20 PM64 °FScattered clouds.16 mph64%29.92 "HgN/A
11:50 AM63 °FScattered clouds.18 mph68%29.92 "HgN/A
11:20 AM63 °FScattered clouds.20 mph73%29.92 "HgN/A
10:50 AM63 °FPartly sunny.18 mph68%29.92 "HgN/A
10:20 AM63 °FPartly sunny.21 mph73%29.89 "HgN/A
9:50 AM59 °FPartly sunny.21 mph77%29.92 "HgN/A
9:20 AM59 °FPartly sunny.18 mph77%29.89 "HgN/A
8:50 AM61 °FScattered clouds.18 mph77%29.89 "HgN/A
8:20 AM59 °FBroken clouds.14 mph82%29.89 "HgN/A
7:50 AM57 °FSprinkles. Broken clouds.14 mph88%29.89 "HgN/A
7:20 AM57 °FBroken clouds.12 mph94%29.89 "HgN/A
Weather by CustomWeather, © 2016

See weather overviewHow to use our weather pages